Hinsdale, NY

10:12 PM EDT on September 25, 2016 (GMT -0400)
Cattaraugus County-Olean

Weather History for KOLE - June, 2014

Change the Weather History Date:

Sunday, June 22, 2014

  Actual Average (KBFD) Record (KBFD)
Temperature  
Mean Temperature 62 °F 63 °F  
Max Temperature 73 °F 75 °F 86 °F (1975)
Min Temperature 50 °F 51 °F 35 °F (1963)
Degree Days  
Heating Degree Days 4 1  
Month to date heating degree days 51  
Since 1 June heating degree days 51  
Since 1 July heating degree days 7679  
Cooling Degree Days 0 2  
Month to date cooling degree days 25  
Year to date cooling degree days 35  
Since 1 June cooling degree days 25  
Growing Degree Days 12 (Base 50)    
Moisture  
Dew Point 48 °F    
Average Humidity 64    
Maximum Humidity 94    
Minimum Humidity 38    
Precipitation  
Precipitation 0.00 in 0.16 in 2.86 in (1972)
Month to date precipitation 3.63  
Year to date precipitation 20.37  
Sea Level Pressure  
Sea Level Pressure 30.02 in    
Wind  
Wind Speed 4 mph (East)    
Max Wind Speed 8 mph    
Max Gust Speed -    
Visibility 10 miles    
Events      
T = Trace of Precipitation, MM = Missing Value Source: NWS Daily Summary

Daily Weather History Graph

Daily Weather History Graph

Search for Another Location

Airport or City:

Trip Planner

Search our weather history database for the weather conditions in past years. The results will help you decide how hot, cold, wet, or windy it might be!

Date:

Astronomy

Jun. 22, 2014 Rise Set
Actual Time 5:37 AM EDT 8:53 PM EDT
Civil Twilight 5:02 AM EDT 9:28 PM EDT
Nautical Twilight 4:17 AM EDT 10:13 PM EDT
Astronomical Twilight 3:23 AM EDT 11:07 PM EDT
Moon 2:28 AM EDT (6/22) 4:29 PM EDT (6/22)
Length of Visible Light 16h 25m
Length of Day
15h 16m
Waning Crescent, 21% of the Moon is Illuminated
Jun 22
Waning Crescent
Jun 27
New
Jul 5
First Quarter
Jul 12
Full
Jul 18
Last Quarter

Hourly Weather History & Observations

Time (EDT) Temp. Dew Point Humidity Pressure Visibility Wind Dir Wind Speed Gust Speed Precip Events Conditions
12:15 AM 53.6 °F 50.0 °F 88% 30.00 in 10.0 mi East 4.6 mph - N/A   Clear
12:35 AM 53.6 °F 50.0 °F 88% 30.01 in 10.0 mi East 3.5 mph - N/A   Clear
12:55 AM 53.6 °F 50.0 °F 88% 30.01 in 10.0 mi East 3.5 mph - N/A   Clear
1:15 AM 53.6 °F 50.0 °F 88% 30.01 in 10.0 mi ESE 3.5 mph - N/A   Mostly Cloudy
1:35 AM 55.4 °F 50.0 °F 82% 30.01 in 10.0 mi ESE 4.6 mph - N/A   Overcast
1:55 AM 53.6 °F 50.0 °F 88% 30.01 in 10.0 mi East 4.6 mph - N/A   Scattered Clouds
2:15 AM 53.6 °F 50.0 °F 88% 30.00 in 10.0 mi East 4.6 mph - N/A   Clear
2:35 AM 51.8 °F 48.2 °F 88% 30.00 in 10.0 mi East 4.6 mph - N/A   Clear
2:55 AM 51.8 °F 50.0 °F 94% 30.00 in 10.0 mi East 3.5 mph - N/A   Clear
3:15 AM 51.8 °F 50.0 °F 94% 30.00 in 10.0 mi East 3.5 mph - N/A   Clear
3:35 AM 51.8 °F 48.2 °F 88% 29.99 in 10.0 mi East 4.6 mph - N/A   Clear
3:55 AM 51.8 °F 50.0 °F 94% 30.00 in 10.0 mi East 3.5 mph - N/A   Clear
4:15 AM 51.8 °F 50.0 °F 94% 30.00 in 10.0 mi Calm Calm - N/A   Clear
4:35 AM 51.8 °F 48.2 °F 88% 30.00 in 10.0 mi ESE 3.5 mph - N/A   Clear
4:55 AM 51.8 °F 48.2 °F 88% 30.00 in 10.0 mi East 4.6 mph - N/A   Clear
5:15 AM 51.8 °F 50.0 °F 94% 30.00 in 10.0 mi East 3.5 mph - N/A   Clear
5:35 AM 50.0 °F 48.2 °F 94% 30.00 in 10.0 mi East 3.5 mph - N/A   Clear
5:55 AM 51.8 °F 48.2 °F 88% 30.01 in 10.0 mi East 3.5 mph - N/A   Clear
6:15 AM 51.8 °F 50.0 °F 94% 30.01 in 10.0 mi East 3.5 mph - N/A   Clear
6:35 AM 51.8 °F 50.0 °F 94% 30.01 in 10.0 mi East 3.5 mph - N/A   Clear
6:55 AM 51.8 °F 50.0 °F 94% 30.01 in 10.0 mi East 3.5 mph - N/A   Clear
7:15 AM 55.4 °F 50.0 °F 82% 30.02 in 10.0 mi ESE 3.5 mph - N/A   Clear
7:35 AM 55.4 °F 50.0 °F 82% 30.02 in 10.0 mi East 3.5 mph - N/A   Clear
7:55 AM 55.4 °F 50.0 °F 82% 30.03 in 10.0 mi East 4.6 mph - N/A   Clear
8:15 AM 57.2 °F 50.0 °F 77% 30.03 in 10.0 mi East 4.6 mph - N/A   Clear
8:35 AM 59.0 °F 51.8 °F 77% 30.03 in 10.0 mi East 3.5 mph - N/A   Clear
8:55 AM 60.8 °F 50.0 °F 68% 30.04 in 10.0 mi East 3.5 mph - N/A   Clear
9:15 AM 62.6 °F 50.0 °F 63% 30.04 in 10.0 mi ESE 4.6 mph - N/A   Clear
9:35 AM 62.6 °F 50.0 °F 63% 30.04 in 10.0 mi East 5.8 mph - N/A   Clear
9:55 AM 62.6 °F 48.2 °F 59% 30.04 in 10.0 mi ENE 6.9 mph - N/A   Clear
10:15 AM 64.4 °F 50.0 °F 59% 30.04 in 10.0 mi East 5.8 mph - N/A   Clear
10:35 AM 64.4 °F 48.2 °F 56% 30.04 in 10.0 mi East 8.1 mph - N/A   Clear
10:55 AM 66.2 °F 48.2 °F 52% 30.04 in 10.0 mi East 8.1 mph - N/A   Clear
11:15 AM 68.0 °F 48.2 °F 49% 30.04 in 10.0 mi East 8.1 mph - N/A   Clear
11:35 AM 68.0 °F 50.0 °F 52% 30.04 in 10.0 mi East 8.1 mph - N/A   Clear
11:55 AM 68.0 °F 48.2 °F 49% 30.03 in 10.0 mi East 5.8 mph - N/A   Clear
12:15 PM 68.0 °F 46.4 °F 46% 30.03 in 10.0 mi NE 8.1 mph - N/A   Clear
12:35 PM 69.8 °F 46.4 °F 43% 30.03 in 10.0 mi SE 4.6 mph - N/A   Clear
12:55 PM 69.8 °F 46.4 °F 43% 30.03 in 10.0 mi East 5.8 mph - N/A   Clear
1:15 PM 69.8 °F 46.4 °F 43% 30.02 in 10.0 mi East 5.8 mph - N/A   Clear
1:35 PM 69.8 °F 46.4 °F 43% 30.02 in 10.0 mi ESE 4.6 mph - N/A   Clear
1:55 PM 69.8 °F 46.4 °F 43% 30.02 in 10.0 mi East 3.5 mph - N/A   Clear
2:15 PM 69.8 °F 46.4 °F 43% 30.02 in 10.0 mi SE 5.8 mph - N/A   Clear
2:35 PM 71.6 °F 46.4 °F 41% 30.02 in 10.0 mi Calm Calm - N/A   Clear
2:55 PM 71.6 °F 46.4 °F 41% 30.02 in 10.0 mi Calm Calm - N/A   Clear
3:15 PM 73.4 °F 48.2 °F 41% 30.02 in 10.0 mi SE 4.6 mph - N/A   Clear
3:35 PM 71.6 °F 44.6 °F 38% 30.03 in 10.0 mi SE 3.5 mph - N/A   Clear
3:55 PM 73.4 °F 48.2 °F 41% 30.03 in 10.0 mi ESE 4.6 mph - N/A   Clear
4:15 PM 71.6 °F 46.4 °F 41% 30.03 in 10.0 mi Calm Calm - N/A   Clear
4:35 PM 73.4 °F 50.0 °F 44% 30.03 in 10.0 mi NE 6.9 mph - N/A   Clear
4:55 PM 71.6 °F 46.4 °F 41% 30.02 in 10.0 mi Calm Calm - N/A   Clear
5:15 PM 71.6 °F 46.4 °F 41% 30.01 in 10.0 mi NE 3.5 mph - N/A   Clear
5:35 PM 71.6 °F 48.2 °F 43% 30.01 in 10.0 mi NNE 4.6 mph - N/A   Clear
5:55 PM 71.6 °F 46.4 °F 41% 30.01 in 10.0 mi ENE 3.5 mph - N/A   Clear
6:15 PM 71.6 °F 46.4 °F 41% 30.01 in 10.0 mi ENE 3.5 mph - N/A   Clear
6:35 PM 71.6 °F 48.2 °F 43% 30.01 in 10.0 mi East 5.8 mph - N/A   Clear
6:55 PM 71.6 °F 48.2 °F 43% 30.01 in 10.0 mi East 4.6 mph - N/A   Clear
7:15 PM 69.8 °F 48.2 °F 46% 30.00 in 10.0 mi East 5.8 mph - N/A   Clear
7:35 PM 68.0 °F 48.2 °F 49% 30.01 in 10.0 mi Calm Calm - N/A   Clear
7:55 PM 68.0 °F 48.2 °F 49% 30.02 in 10.0 mi NE 4.6 mph - N/A   Clear
8:15 PM 64.4 °F 48.2 °F 56% 30.02 in 10.0 mi NE 4.6 mph - N/A   Clear
8:35 PM 62.6 °F 46.4 °F 55% 30.02 in 10.0 mi NE 5.8 mph - N/A   Clear
8:55 PM 62.6 °F 46.4 °F 55% 30.01 in 10.0 mi East 5.8 mph - N/A   Clear
9:15 PM 60.8 °F 46.4 °F 59% 30.01 in 10.0 mi East 6.9 mph - N/A   Clear
9:35 PM 60.8 °F 46.4 °F 59% 30.02 in 10.0 mi ENE 5.8 mph - N/A   Clear
9:55 PM 60.8 °F 46.4 °F 59% 30.03 in 10.0 mi East 6.9 mph - N/A   Clear
10:35 PM 60.8 °F 46.4 °F 59% 30.04 in 10.0 mi East 5.8 mph - N/A   Clear
10:55 PM 60.8 °F 46.4 °F 59% 30.04 in 10.0 mi East 5.8 mph - N/A   Clear
11:15 PM 59.0 °F 46.4 °F 63% 30.04 in 10.0 mi East 5.8 mph - N/A   Clear
11:35 PM 59.0 °F 46.4 °F 63% 30.04 in 10.0 mi East 5.8 mph - N/A   Clear
11:55 PM 57.2 °F 48.2 °F 72% 30.05 in 10.0 mi East 5.8 mph - N/A   Clear